Погода в Сортавале

Хотите узнать прогноз погоды в Сортавале? Тогда Вам сюда: Погода в Сортавале

Поиск расширенной информации на нашем сайте:

Полезная информация:

Новости сайта



02.01.2020
Опубликован Долгосрочный прогноз погоды по городам России и ближнего зарубежья на январь 2020 года.
Карты: Прогноз на январь и февраль 2020 года, Сравнение прогнозируемой аномалии приземной температуры воздуха на январь 2020 года по разным моделям.




Погода в Сортавале - сегодня

Время (UTC), дата Ветер
(°,м/с) 
Видим.   Явления Облачность Т
(°С)
Тd
(°С)
f(%) Тe
(°С)
Pmin
(гПа)
dP
(гПа)
Po
(мм)
O2
(г/м3)
Тmin Tmax R s Состояние
почвы
15 02.07.20 190 (Ю) 20000 м    8/4 1000 м средняя, верхняя 
[Cu med, cong|Ac trans|Ci fib]
+18.1 +12 68 +23  1004.5  0.8  752  282           
18 02.07.20 090 (В) 20000 м    6/4 1000 м верхняя 
[Cu hum|Ci fib]
+15.9 +12.6 81 +22  1005.3  0.8  752  284    +19.9       
21 02.07.20 100 (В) 20000 м    8/0 средняя 
[Ac lent]
+12.2 +11.4 95 +16  1005.6  0.3  753  288           
00 03.07.20 100 (В) 20000 м  в посл. час ливневой дождь  9/8 600 м кучево-дожд., средняя 
[Cb cap|Ac lent]
+13.4 +12.5 94 +19  1004.8  -0.8  752  286           
03 03.07.20 080 (В) 6000 м  слаб. ливневой дождь  9/9 700 м кучево-дожд. 
[Cb cap]
+13.7 +13.1 96 +20  1003.8  -1  751  286  +12.1       
06 03.07.20 170 (Ю) 29000 м  {ливн. осадки}  9/9 800 м 
[Sc]
+15.8 +14.3 91 +24  1003.9  0.1  751  283  +12.1      влажная 
09 03.07.20 240 (ЮЗ) 20000 м    8/6 600 м кучево-дожд., средняя, верхняя 
[Cb cap|Ac trans|Ci fib]
+19.9 +13.5 67 +27  1005.2  1.3  752  280           
12 03.07.20 220 (ЮЗ) 20000 м    8/4 600 м кучево-дожд., средняя, верхняя 
[Cb cap|Ac trans|Ci fib]
+21.1 +10.3 50 +23  1006.2  753  280           
15 03.07.20 190 (Ю) 20000 м    9/6 600 м кучево-дожд., средняя, верхняя 
[Cb cap|Ac trans|Ci fib]
+19.3 +10.9 58 +22  1007.4  1.2  754  282           
18 03.07.20 190 (Ю) 20000 м    3/1 600 м кучево-дожд., верхняя 
[Cb cap|Ci fib]
+18.6 +8.2 51 +20  1007.9  0.5  754  283    +22.2       
21 03.07.20 030 (СВ) 20000 м    3/1 600 м верхняя 
[Sc|Ci fib]
+11.1 +8.4 83 +12  1008.7  0.7  755  291           
00 04.07.20 тихо ()   20000 м    4/0 средняя, верхняя 
[Ac trans|Ci fib]
+9.3 +7.8 90 +9  1009.3  0.6  755  293           
03 04.07.20 200 (Ю) 20000 м    9/0 средняя, верхняя 
[Ac trans|Ci fib]
+13.8 +8.7 71 +15  1009.4  0.2  755  288  +9         
06 04.07.20 200 (Ю) 20000 м    3/0 средняя, верхняя 
[Ac trans|Ci fib]
+17.4 +6.5 49 +18  1009.1  -0.3  755  285  +9        влажная 
09 04.07.20 180 (Ю) 20000 м    9/1 1000 м средняя, верхняя 
[Cu med, cong|Ac trans|Ci fib]
+18.7 +11.2 62 +22  1008.9  -0.2  755  283           
12 04.07.20 180 (Ю) 20000 м    9/1 1000 м средняя, верхняя 
[Sc|Ac trans|Cs]
+18 +11.2 64 +21  1008.3  -0.6  755  283           
15 04.07.20 210 (ЮЗ) 20000 м    10/1 600 м кучево-дожд., средняя 
[Cb cap|Ac As]
+18.4 +9.3 55 +19  1007.3  -1  754  283           
18 04.07.20 160 (Ю) 29000 м  в посл. час ливневой дождь  10/10 840 м кучево-дожд. 
[Cb cap]
+14.8 +11.2 79 +18  1006  -1.3  753  286    +19.6  0.4     
21 04.07.20 200 (Ю) 20000 м  {ливн. осадки}  10/10 540 м кучево-дожд. 
[Cb cap]
+14.8 +13 89 +20  1004.7  -1.3  752  285           
00 05.07.20 200 (Ю) 20000 м  {ливн. осадки}  10/10 900 м кучево-дожд. 
[Cb cap]
+14.9 +13.4 91 +22  1003.9  -0.8  751  284           
03 05.07.20 180 (Ю) 9000 м  слаб. ливневой дождь  10/10 540 м кучево-дожд. 
[Cb cap]
+14.8 +13.5 92 +21  1002.6  -1.3  750  284  +14       
06 05.07.20 190 (Ю) 10 км  слаб. ливневой дождь  10/10 450 м кучево-дожд. 
[Cb cap]
+15.1 +14.1 94 +23  1001.5  -1.1  749  283  +14      влажная 
09 05.07.20 290 (З) 10 км  слаб. ливневой дождь  10/10 480 м кучево-дожд. 
[Cb cap]
+14.6 +13.9 96 +23  1001.4  -0.1  749  284           
12 05.07.20 260 (З) 20000 м  {ливн. осадки}  10/10 720 м кучево-дожд. 
[Cb cap]
+16.7 +12.5 76 +23  1001.9  0.5  750  282           
15 05.07.20 180 (Ю) 20000 м    9/5 600 м кучево-дожд., средняя, верхняя 
[Cb cap|Ac trans|Ci fib]
+17.6 +13.8 78 +25  1002  0.1  750  281         
Время (UTC), дата Ветер
(°,м/с) 
Видим.   Явления Облачность Т
(°С)
Тd
(°С)
f(%) Тe
(°С)
Pmin
(гПа)
dP
(гПа)
Po
(мм)
O2
(г/м3)
Тmin Tmax R s Состояние
почвы

Для получения пояснительной информации подведите курсор к названию столбца.

ПОГОДА в Сортавале - архив

Всё, что Вы хотите узнать о погоде в Сортавале - удобно и подробно!

Выберите нужную дату (начиная с 1 января 2019* года) и нажмите кнопку "Найти".
Будут отображены архивные сводки погоды по пункту Сортавала, начиная с указанной даты.


Отображать данные в формате CSV (для использования в таблицах Excel)


Внимание! Наш архив погоды предназначен исключительно для личного некоммерческого использования в познавательных целях. Если Вам необходимы официальные справки о состоянии погоды (для производственных, юридических, коммерческих и т.п. целей), обращайтесь в органы Росгидромета.

*Примечание: данная дата относится к архиву по метеостанциям СССР (Россия, СНГ, Балтия).
Архив по метеостанциям Зарубежной Европы и Азии (кроме Китая) хранится 10 дней, по другим регионам земного шара (Китай, Африка, Америка, Австралия, Океания) - 1 день.

Сортавала - район местоположения метеостанции


Название, широта, долгота, высота метеостанции:
Сортавала 61.7°ш. 30.7°д. 19 м над ур. моря [Российская Федерация]

Дополнительная информация

В oтличие oт бoльшинства пoгoдных сайтoв мы публикуем пoдрoбную метеoинфoрмацию в детальнoм прoфессиoнальнoм фoрмате.

Характеристики температуры и влажнoсти вoздуха измеряются на высoте 2 м в тени вдали oт зданий и деревьев.
Скoрoсть ветра измеряется на высoте 10 м (на урoвне рoста челoвека скoрoсть ветра ниже в 1.5-2 раза). Если метеoстанция нахoдится в гoрoде или в лесу, тo скoрoсть ветра занижена на 2-4 м/с пo сравнению с oткрытым местoм. Скoрoсть ветра над акватoриями крупных рек и oзёр, а также на вершинах хoлмoв на 2-5 м/с выше, чем в oбычных услoвиях.
Атмoсфернoе давление в разных тoчках местнoсти мoжет значительнo oтличаться oт давления на метеoстанции, в зависимoсти oт услoвий рельефа (при пoдъёме на 10 м давление пoнижается примернo на 1 мм рт.ст.).